Startseite
Über Mich
AHP4
Galerie
Sehschlangen
Tourenbuch
Bookmarks
Elektronik
Bewertung
Geschichten
[Tagesmessung] [Jahreswerte] [Information]

Messwerte vom 21.02.2022

Die letzten Messwerte von 23:58:46 Uhr:
KategorieMesswert
Temperatur [°C]4
Luftdruck [mBar]989
Sonneneinstrahlung0
Wind [km/h]0 aus Süd
Niederschlag [l/m²]0
rel.Luftfeucht.96.6%
CO2 [ppm]483

Diagramme
Messwerte vom 21.02.2022
Tagesaggregation
KategorieMinimumMaximumSchnittSumme
Temperatur [°C]294.3396
Luftdruck [mBar]970989978.8938
Sonneneinstrahlung22675.9146
Wind [km/h]0
rF [%]71.196.692.01
Niederschlag [l/m²]6.695
CO2 [ppm]404764630.4
Einordnung alsKalter Tag

Messungen an benachbarten Tagen: Zur Jahresaggregation 2022
Tabelle aller Messwerte
UhrzeitTemperatur [°C]Luftdruck [mBar]SonneWind [km/h]RichtungRegen [l/m²]rF [%]CO2 [ppm]
00:01:47 9 973 0 0 SW 0 96.6 692
00:04:47 9 973 0 0 SO 0 96.6 695
00:07:48 9 973 0 0 SW 0 96.6 689
00:10:48 9 973 0 0 S 0 96.6 683
00:13:47 9 973 0 0 SW 0 96.6 680
00:16:47 9 973 0 0 SW 0 96.6 683
00:19:49 9 973 0 0 S 0 96.6 688
00:22:47 9 973 0 0 SO 0 96.6 685
00:25:49 9 973 0 0 SW 0 96.6 682
00:28:46 9 973 0 0 SW 0 96.6 679
00:31:47 9 973 0 0 SW 0 96.6 685
00:34:47 9 973 0 0 S 0 96.6 680
00:37:46 9 973 0 0 S 0 96.6 682
00:40:47 9 973 0 0 S 0 96.6 684
00:43:46 9 972 0 0 SO 0 96.5 676
00:46:48 9 973 0 0 NO 0 95.9 670
00:49:47 9 973 0 0 W 0 95.6 660
00:52:47 9 973 0 0 O 0 94.8 650
00:55:44 9 973 0 0 S 0 95 651
00:58:48 9 973 0 0 S 0 94.1 649
01:01:46 9 973 0 0 SO 0 93.6 655
01:04:45 9 972 0 0 O 0 93.8 656
01:07:45 9 973 0 0 S 0 93 653
01:10:47 9 972 0 0 SW 0 92.8 652
01:13:46 9 972 0 0 NW 0 93.3 651
01:16:45 9 972 0 0 SW 0 93.4 644
01:19:48 9 972 0 0 W 0 94.6 648
01:22:46 9 972 0 0 NW 0 94.9 649
01:25:46 9 972 0 0 S 0 94.5 644
01:28:47 9 971 0 0 SO 0 93.6 645
01:31:48 9 972 0 0 S 0 92.8 639
01:34:46 9 972 0 0 SO 0 92.5 641
01:37:47 9 970 0 0 SW 0 92.6 635
01:40:47 9 971 0 0 SW 0 92.2 640
01:43:45 9 971 0 0 SW 0 92.1 639
01:46:47 9 971 0 0 S 0 91.4 633
01:49:46 9 971 0 0 SW 0 90.9 630
01:52:47 9 971 0 0 SW 0 91 627
01:55:48 9 971 0 0 SO 0 90.8 630
01:58:48 9 972 0 0 SW 0.515 93.5 632
02:01:49 8 973 0 0 SW 1.2875 96.2 622
02:04:47 8 973 0 0 SW 0 96.6 620
02:07:46 7 973 0 0 SO 0 96.6 615
02:10:46 6 973 0 0 SW 0.2575 96.6 620
02:13:48 6 973 0 0 SW 0 96.6 626
02:16:45 6 973 0 0 W 0 96.6 626
02:19:47 6 973 0 0 NW 0 96.6 629
02:22:48 5 973 0 0 SO 0 96.6 631
02:25:51 5 973 0 0 W 0 96.6 632
02:28:46 5 973 0 0 0 96.6 629
02:31:46 5 973 0 0 S 0 96.6 627
02:34:44 5 973 0 0 0 96.6 627
02:37:47 5 973 0 0 SO 0 96.6 627
02:40:46 5 973 0 0 O 0 96.6 629
02:43:47 6 973 0 0 S 0.2575 96.6 630
02:46:47 6 973 0 0 NW 0 96.6 633
02:49:46 6 973 0 0 NW 0 96.6 629
02:52:46 6 973 0 0 SO 0 96.6 630
02:55:47 6 973 0 0 SO 0 96.6 632
02:58:44 6 973 0 0 W 0 96.6 635
03:01:46 6 973 0 0 S 0 96.6 638
03:04:48 6 973 0 0 NW 0 96.6 636
03:07:46 6 973 0 0 W 0 96.6 630
03:10:47 6 973 0 0 SO 0 96.6 633
03:13:47 6 973 0 0 W 0 96.6 638
03:16:45 6 973 0 0 S 0 96.6 647
03:19:47 6 973 0 0 S 0 96.6 656
03:22:45 6 975 0 0 N 0 96.6 655
03:25:49 6 973 0 0 SO 0 96.6 656
03:28:45 6 973 0 0 S 0 96.6 656
03:31:46 6 973 0 0 S 0 96.6 644
03:34:46 6 973 0 0 NO 0 96.6 638
03:37:46 6 974 0 0 W 0 96.6 635
03:40:46 6 973 0 0 N 0 96.6 641
03:43:46 6 973 0 0 NO 0 96.6 641
03:46:46 6 973 0 0 SW 0 96.6 638
03:49:46 6 975 0 0 W 0 96.6 641
03:52:47 6 975 0 0 NW 0 96.6 636
03:55:46 6 974 0 0 SO 0 96.6 635
03:58:47 6 975 0 0 NW 0 96.6 633
04:01:44 5 974 0 0 W 0 96.3 626
04:04:49 5 975 0 0 SW 0 95.7 609
04:07:47 5 974 0 0 SW 0 96.6 603
04:10:46 5 974 0 0 NW 0 96.6 608
04:13:47 5 973 0 0 S 0 96.6 612
04:16:45 5 974 0 0 W 0 96.6 612
04:19:47 5 975 0 0 W 0 96.6 609
04:22:47 5 974 0 0 SW 0 96.6 612
04:25:46 5 974 0 0 SW 0 96.6 618
04:28:49 5 975 0 0 SW 0 96.6 624
04:31:47 5 975 0 0 W 0 96.5 624
04:34:46 5 974 0 0 W 0 96.5 630
04:37:46 5 974 0 0 SW 0 96.5 626
04:40:47 5 975 0 0 S 0 96 624
04:43:45 5 974 0 0 W 0 94.9 615
04:46:47 5 975 0 0 SW 0 94.5 606
04:49:49 5 975 0 0 NW 0 94.6 603
04:52:44 5 976 0 0 N 0 94.8 597
04:55:45 4 975 0 0 NW 0 94.6 585
04:58:46 4 976 0 0 S 0 95.3 577
05:01:46 4 976 0 0 SO 0 95.6 586
05:04:47 4 976 0 0 S 0 95.9 587
05:07:47 4 976 0 0 O 0 96 583
05:10:48 4 976 0 0 S 0 95.8 580
05:13:46 4 976 0 0 SW 0 95.5 584
05:16:46 3 976 0 0 S 0 95.2 585
05:19:46 4 976 0 0 S 0 94.9 570
05:22:45 4 976 0 0 SW 0 94.6 565
05:25:48 4 976 0 0 SW 0 94.2 553
05:28:47 4 976 0 0 SW 0 93.9 550
05:31:47 4 976 0 0 SW 0 93.4 554
05:34:46 4 976 0 0 W 0 93.4 551
05:37:47 4 976 0 0 SW 0 93.5 565
05:40:48 4 976 0 0 W 0 93.4 563
05:43:48 4 976 0 0 SW 0 93.8 566
05:46:46 4 976 0 0 SW 0 94.3 576
05:49:46 4 976 0 0 SW 0 94.6 582
05:52:46 4 976 0 0 0 94.1 583
05:55:46 4 976 0 0 NW 0 94 574
05:58:47 4 976 0 0 SW 0 93.6 571
06:01:47 4 976 0 0 NW 0 92.7 563
06:04:48 4 976 0 0 NW 0 92.7 568
06:07:45 4 976 0 0 S 0 92.7 579
06:10:47 4 976 0 0 SW 0 92.5 579
06:13:49 4 976 0 0 O 0 92.5 590
06:16:48 4 976 0 0 SW 0 92.2 594
06:19:45 4 976 0 0 W 0 92.7 609
06:22:47 4 976 0 0 SW 0 92.5 618
06:25:50 4 976 0 0 S 0 91.6 607
06:28:46 4 976 0 0 W 0 91 597
06:31:45 4 976 0 0 W 0 90.6 589
06:34:48 4 976 0 0 NW 0 90.2 586
06:37:48 4 976 0 0 SW 0 89.6 580
06:40:47 4 977 0 0 NW 0 89.1 582
06:43:47 4 977 0 0 SW 0 89.7 590
06:46:47 4 977 0 0 W 0 89.7 601
06:49:48 4 976 0 0 O 0 89.3 605
06:52:46 4 977 0 0 S 0 89.2 600
06:55:46 4 977 0 0 NO 0 88.8 601
06:58:47 4 977 3 0 O 0 88.8 615
07:01:50 4 977 3 0 NW 0 88.5 619
07:04:48 4 977 6 0 S 0 88 615
07:07:45 4 976 13 0 O 0 87.8 597
07:10:47 4 977 22 0 S 0 87.7 583
07:13:46 4 977 34 0 SW 0 87.5 564
07:16:45 3 977 23 0 S 0 87.7 560
07:19:48 3 978 28 0 W 0 88.9 582
07:22:47 3 977 37 0 SO 0 89.6 618
07:25:48 3 978 35 0 W 0 90.5 630
07:28:47 3 977 42 0 SW 0 91.6 632
07:31:48 3 979 69 0 S 0 92.9 629
07:34:46 3 978 101 0 SW 0 93.7 635
07:37:48 2 978 114 0 NW 0 94.6 644
07:40:46 2 978 120 0 O 0 95.1 644
07:43:48 2 978 123 0 NW 0 95.1 641
07:46:46 2 979 127 0 W 0 95 641
07:49:48 2 978 135 0 SW 0 94.7 641
07:52:46 2 978 140 0 W 0 94.6 641
07:55:45 2 979 138 0 S 0 94.6 646
07:58:48 2 980 149 0 W 0 94.9 657
08:01:48 2 979 153 0 SW 0 94.8 667
08:04:48 2 979 158 0 SO 0 94.6 677
08:07:47 2 979 162 0 S 0 94.4 679
08:10:48 2 979 172 0 SW 0 94.3 694
08:13:48 2 979 163 0 S 0 94.4 700
08:16:46 2 979 168 0 S 0 94 708
08:19:47 2 978 174 0 NO 0 93.8 702
08:22:48 2 979 180 0 S 0 94.2 702
08:25:49 2 979 180 0 SW 0 94.6 705
08:28:45 2 979 177 0 S 0 94.6 708
08:31:48 3 979 180 0 W 0 93.8 715
08:34:49 3 978 180 0 W 0 92.9 715
08:37:47 3 979 183 0 SW 0 92 719
08:40:46 3 979 186 0 N 0 91.8 714
08:43:49 3 979 188 0 W 0 90.8 709
08:46:49 3 980 182 0 S 0 90 710
08:49:50 3 979 185 0 SO 0 89.5 715
08:52:47 3 980 184 0 SW 0 89.2 720
08:55:48 3 979 192 0 SO 0 89 720
08:58:47 3 979 199 0 S 0 89.3 726
09:01:49 3 980 195 0 W 0 87.5 726
09:04:47 3 979 191 0 SO 0 87 734
09:07:46 4 980 190 0 N 0 85.4 743
09:10:48 3 980 195 0 W 0 86.6 741
09:13:47 3 980 191 0 N 0 87 741
09:16:49 3 980 189 0 SO 0 86.7 744
09:19:48 3 979 194 0 S 0 87.4 750
09:22:46 3 980 195 0 S 0 87.5 743
09:25:47 4 980 197 0 SW 0 86.4 744
09:28:47 4 980 204 0 SO 0 85.7 735
09:31:49 4 980 205 0 SO 0 85.2 722
09:34:49 4 979 208 0 SO 0 84.6 715
09:37:47 4 979 210 0 W 0 84.6 711
09:40:48 4 980 212 0 SW 0 84.2 714
09:43:48 4 980 211 0 SW 0 84.2 718
09:46:46 4 979 214 0 O 0 82.3 731
09:49:47 4 980 218 0 N 0 82.5 736
09:52:47 4 979 209 0 S 0 82.2 739
09:55:47 4 980 207 0 W 0 81 735
09:58:48 4 980 213 0 S 0 81.2 743
10:01:47 4 979 205 0 NO 0 81.5 747
10:04:47 4 980 209 0 SW 0 80.2 743
10:07:48 4 979 207 0 SW 0 79.8 743
10:10:49 4 980 211 0 SW 0 79.7 740
10:13:49 4 980 208 0 NW 0 80 743
10:16:48 4 980 196 0 SW 0 80.1 741
10:19:48 4 980 212 0 W 0 80 744
10:22:46 5 980 212 0 SW 0 80 742
10:25:49 5 980 212 0 NW 0 80.5 743
10:28:48 5 979 209 0 SO 0 79.8 747
10:31:48 5 980 206 0 SW 0 78.7 750
10:34:47 5 980 205 0 S 0 77.8 641
10:37:46 5 980 208 0 SW 0 77.9 652
10:40:50 5 980 204 0 NW 0 78.4 653
10:43:47 5 979 204 0 SW 0 78.7 642
10:46:48 5 980 209 0 N 0 76.9 642
10:49:48 5 980 205 0 S 0 78.2 638
10:52:48 5 980 201 0 W 0 78.7 656
10:55:48 5 980 195 0 SW 0 78 651
10:58:47 5 980 199 0 NO 0 77.2 652
11:01:48 5 980 207 0 SW 0 77.8 656
11:04:48 5 980 205 0 SW 0 77.9 663
11:07:47 5 980 206 0 S 0 76.9 664
11:10:47 5 980 210 0 SW 0 77.1 662
11:13:48 5 980 207 0 S 0 77.8 667
11:16:47 5 980 211 0 SO 0 77.7 664
11:19:46 5 980 215 0 N 0 77.1 667
11:22:47 5 979 219 0 N 0 77.1 667
11:25:46 5 980 222 0 S 0 77 674
11:28:49 5 979 223 0 NW 0 76.7 682
11:31:47 5 980 221 0 W 0 76.1 685
11:34:46 5 979 222 0 S 0 75.5 688
11:37:46 5 979 221 0 N 0 75.2 682
11:40:48 6 980 226 0 W 0 75.5 679
11:43:46 6 980 226 0 S 0 74.9 677
11:46:47 6 980 225 0 SO 0 73 674
11:49:49 6 980 224 0 SW 0 73 667
11:52:47 6 980 214 0 SW 0 72.2 664
11:55:48 6 980 210 0 SW 0 71.1 659
11:58:45 6 980 209 0 0 71.2 659
12:01:48 6 980 206 0 SW 0 71.8 653
12:04:49 5 979 196 0 SW 0 71.5 653
12:07:47 5 980 198 0 SW 0 71.4 648
12:10:50 5 980 197 0 SW 0 71.8 620
12:13:48 5 980 200 0 SO 0 72.4 614
12:16:46 5 980 209 0 N 0 72 618
12:19:47 5 980 204 0 O 0 71.6 636
12:22:48 5 980 188 0 SO 0 72.4 633
12:25:46 5 980 183 0 SW 0 71.7 641
12:28:49 5 980 185 0 S 0 72.8 633
12:31:49 5 980 185 0 S 0 73.6 636
12:34:47 5 980 196 0 NW 0 73.3 626
12:37:49 5 980 191 0 SO 0 73.2 632
12:40:49 5 980 187 0 S 0 73.4 637
12:43:46 5 980 187 0 SW 0 73.1 641
12:46:47 5 979 184 0 W 0 73.6 644
12:49:48 5 980 196 0 SO 0 73.7 641
12:52:48 5 980 203 0 S 0 73.3 642
12:55:47 5 980 205 0 S 0 74.1 641
12:58:49 5 979 205 0 SW 0 74.4 648
13:01:47 5 980 199 0 SW 0 75.4 647
13:04:46 5 980 197 0 S 0 75.5 647
13:07:46 5 979 197 0 S 0 75 644
13:10:46 5 979 201 0 S 0 75.1 653
13:13:48 5 979 206 0 NO 0 76 655
13:16:47 5 979 205 0 S 0 76.4 657
13:19:46 5 979 194 0 W 0 76.5 658
13:22:48 5 979 194 0 S 0 77 659
13:25:48 5 979 195 0 SO 0 77.2 669
13:28:48 4 980 195 0 SO 0 78.9 676
13:31:47 4 980 197 0 S 0 80.7 685
13:34:49 4 979 200 0 S 0 82.2 682
13:37:49 4 980 203 0 SO 0 83.6 685
13:40:48 4 980 205 0 SW 0 85.5 685
13:43:48 4 980 195 0 O 0 87.6 688
13:46:48 4 980 188 0 SW 0 88.4 688
13:49:49 3 979 185 0 NO 0.2575 90.5 688
13:52:46 3 980 185 0 W 0 91.9 694
13:55:47 3 979 184 0 NO 0 93.4 691
13:58:47 3 980 187 0 W 0 94.7 685
14:01:48 3 980 193 0 S 0 95.7 677
14:04:47 3 979 199 0 W 0 96.6 674
14:07:48 3 979 202 0 SW 0.2575 96.6 672
14:10:48 3 980 202 0 S 0 96.6 679
14:13:48 3 978 198 0 SW 0 96.6 688
14:16:47 3 978 198 0 S 0 96.6 695
14:19:49 3 979 198 0 SW 0.2575 96.6 697
14:22:48 3 979 199 0 S 0 96.6 705
14:25:47 3 979 193 0 NO 0 96.6 715
14:28:49 3 978 187 0 SO 0 96.6 709
14:31:46 3 977 185 0 S 0 96.6 715
14:34:46 3 977 177 0 SW 0.2575 96.6 724
14:37:49 3 978 174 0 SO 0 96.6 727
14:40:46 2 978 175 0 S 0 96.6 723
14:43:45 2 978 181 0 O 0.2575 96.6 711
14:46:47 2 978 179 0 SO 0 96.6 706
14:49:48 2 978 179 0 SW 0 96.6 702
14:52:46 2 977 181 0 S 0 96.6 709
14:55:50 2 978 192 0 SW 0 96.6 713
14:58:49 2 976 185 0 SO 0.2575 96.6 713
15:01:49 2 978 185 0 SO 0 96.6 718
15:04:48 3 977 188 0 O 0 96.6 713
15:07:48 3 976 192 0 S 0 96.6 703
15:10:47 3 977 188 0 S 0 96.6 710
15:13:47 3 977 195 0 S 0 96.6 718
15:16:49 3 977 202 0 NW 0.2575 96.6 725
15:19:47 3 981 191 0 SW 0 96.6 737
15:22:48 3 977 178 0 SO 0 96.6 736
15:25:47 3 977 167 0 SO 0 96.6 738
15:28:50 3 977 170 0 SW 0 96.6 731
15:31:47 3 976 184 0 S 0.2575 96.6 735
15:34:46 3 977 176 0 SO 0 96.6 724
15:37:47 3 977 172 0 W 0.2575 96.6 717
15:40:49 3 976 158 0 SW 0 96.6 711
15:43:47 3 977 156 0 SW 0 96.6 711
15:46:50 3 976 167 0 SW 0 96.6 725
15:49:47 3 977 179 0 O 0 96.6 730
15:52:47 3 976 187 0 SW 0 96.6 733
15:55:47 3 977 195 0 SW 0 96.6 732
15:58:45 3 977 199 0 W 0 96.6 735
16:01:46 3 976 190 0 SW 0 96.6 741
16:04:47 3 977 191 0 SW 0 96.6 741
16:07:48 3 976 192 0 SW 0 96.6 736
16:10:45 3 976 191 0 S 0 96.6 738
16:13:47 3 977 183 0 SW 0 96.6 737
16:16:46 3 976 177 0 S 0 96.6 735
16:19:46 3 976 183 0 S 0.2575 96.6 735
16:22:46 3 977 164 0 NO 0 96.6 744
16:25:47 3 976 146 0 SW 0 96.6 731
16:28:48 3 976 136 0 SO 0 96.6 726
16:31:48 3 976 125 0 SW 0 96.6 724
16:34:47 3 977 118 0 SW 0 96.6 728
16:37:49 3 977 106 0 SW 0 96.6 726
16:40:48 3 976 105 0 W 0 96.6 730
16:43:47 3 977 104 0 SW 0 96.6 723
16:46:47 3 976 101 0 NW 0.2575 96.6 732
16:49:49 3 977 107 0 SO 0 96.6 738
16:52:47 3 977 108 0 SW 0 96.6 736
16:55:48 3 977 112 0 SW 0.2575 96.6 746
16:58:45 3 976 111 0 S 0 96.6 744
17:01:49 3 977 108 0 S 0 96.6 747
17:04:49 3 977 96 0 S 0.2575 96.6 746
17:07:46 3 977 84 0 S 0 96.6 743
17:10:46 3 977 81 0 S 0 96.6 744
17:13:49 3 978 77 0 SW 0 96.6 746
17:16:47 3 978 72 0 SO 0.2575 96.6 742
17:19:45 3 977 57 0 O 0 96.6 732
17:22:46 3 979 35 0 NW 0 96.6 734
17:25:47 3 979 35 0 W 0.2575 96.6 741
17:28:46 3 978 40 0 NW 0 96.6 743
17:31:47 3 979 39 0 W 0 96.6 749
17:34:46 2 979 36 0 SW 0.2575 96.6 752
17:37:46 2 979 30 0 S 0 96.6 755
17:40:47 2 979 23 0 NW 0 96.6 749
17:43:49 2 979 16 0 W 0 96.6 757
17:46:47 2 980 16 0 W 0 96.6 764
17:49:49 2 979 10 0 SW 0 96.6 760
17:52:47 2 980 7 0 W 0 96.6 759
17:55:46 3 980 5 0 SW 0 96.6 750
17:58:47 3 979 3 0 SW 0 96.6 741
18:01:50 3 980 0 0 SW 0 96.6 739
18:04:45 3 980 0 0 S 0 96.6 726
18:07:47 3 980 0 0 W 0 96.6 708
18:10:48 3 980 0 0 W 0 96.6 711
18:13:46 3 980 0 0 NO 0 96.6 712
18:16:47 3 980 0 0 W 0 96.6 705
18:19:45 3 980 0 0 S 0 96.6 697
18:22:46 3 980 0 0 W 0 96.6 685
18:25:47 3 980 0 0 S 0 96.6 687
18:28:51 3 980 0 0 NW 0 96.6 686
18:31:50 3 980 0 0 S 0 96.6 688
18:34:46 3 980 0 0 W 0 96.6 693
18:37:45 3 980 0 0 W 0 96.6 694
18:40:46 3 980 0 0 W 0 96.6 694
18:43:48 4 981 0 0 NW 0 96.6 691
18:46:47 4 980 0 0 W 0 96.6 685
18:49:48 4 981 0 0 NW 0 96.6 679
18:52:44 4 982 0 0 NO 0 96.6 671
18:55:47 4 981 0 0 NW 0 96.6 662
18:58:46 4 982 0 0 NW 0 96.6 647
19:01:46 4 982 0 0 N 0 96.6 640
19:04:46 4 982 0 0 NW 0 96.6 641
19:07:45 4 982 0 0 W 0 96.6 627
19:10:47 4 983 0 0 NW 0 96.6 618
19:13:48 4 982 0 0 NW 0 96.6 615
19:16:46 4 983 0 0 NW 0 96.6 597
19:19:44 4 983 0 0 W 0 96.6 583
19:22:46 4 983 0 0 W 0 96.6 574
19:25:46 4 984 0 0 S 0 96.6 574
19:28:48 4 984 0 0 NW 0 96.6 562
19:31:46 4 983 0 0 SW 0 96.6 554
19:34:48 4 984 0 0 W 0 96.6 542
19:37:44 4 984 0 0 S 0 96.6 553
19:40:46 4 984 0 0 SW 0 96.6 407
19:43:48 3 984 0 0 NW 0 96.6 407
19:46:48 3 984 0 0 SO 0 96.6 407
19:49:48 3 984 0 0 NW 0 96.6 407
19:52:46 3 984 0 0 NW 0 96.6 407
19:55:47 3 984 0 0 W 0 96.6 406
19:58:46 3 984 0 0 NW 0 96.6 407
20:01:48 3 984 0 0 NW 0 96.6 405
20:04:47 3 984 0 0 S 0 96.6 404
20:07:45 3 984 0 0 N 0 96.6 404
20:10:49 3 984 0 0 SO 0 96.6 407
20:13:47 3 984 0 0 NW 0 96.6 413
20:16:46 3 984 0 0 NW 0 96.6 410
20:19:48 3 984 0 0 W 0 96.6 411
20:22:47 3 984 0 0 SW 0 96.6 419
20:25:48 3 984 0 0 SW 0 96.6 427
20:28:47 3 984 0 0 NW 0 96.6 425
20:31:45 3 984 0 0 S 0 96.6 427
20:34:46 3 985 0 0 W 0 96.6 428
20:37:46 3 985 0 0 W 0 96.6 421
20:40:47 3 984 0 0 S 0 96.6 422
20:43:47 3 985 0 0 SW 0 96.6 425
20:46:49 3 985 0 0 SW 0 96.6 427
20:49:47 3 985 0 0 W 0 96.6 431
20:52:46 3 985 0 0 S 0 96.6 434
20:55:45 3 985 0 0 W 0 96.6 437
20:58:48 3 985 0 0 W 0 96.6 437
21:01:49 3 985 0 0 S 0 96.6 451
21:04:47 3 986 0 0 W 0 96.6 457
21:07:46 3 986 0 0 W 0 96.6 454
21:10:45 3 986 0 0 S 0 96.6 456
21:13:46 3 986 0 0 SW 0 96.6 454
21:16:45 3 987 0 0 W 0 96.6 458
21:19:46 3 986 0 0 W 0 96.6 463
21:22:50 3 986 0 0 SW 0 96.6 470
21:25:47 3 986 0 0 SW 0 96.6 475
21:28:47 3 986 0 0 S 0 96.6 476
21:31:43 3 987 0 0 S 0.2575 96.6 477
21:34:46 4 987 0 0 S 0 96.6 478
21:37:47 4 987 0 0 SW 0 96.6 495
21:40:47 4 987 0 0 SW 0 96.6 495
21:43:47 4 987 0 0 SW 0 96.6 495
21:46:46 4 987 0 0 S 0 96.6 495
21:49:47 4 987 0 0 W 0 96.6 489
21:52:49 4 987 0 0 NW 0 96.6 498
21:55:48 4 987 0 0 SW 0 96.6 498
21:58:44 4 987 0 0 S 0 96.6 492
22:01:47 4 987 0 0 SO 0 96.6 492
22:04:49 4 987 0 0 W 0 96.6 490
22:07:48 4 988 0 0 SW 0 96.6 495
22:10:48 4 987 0 0 SW 0 96.6 498
22:13:48 4 987 0 0 W 0 96.6 500
22:16:46 4 987 0 0 S 0 96.6 498
22:19:45 4 987 0 0 W 0 96.6 501
22:22:46 4 987 0 0 W 0 96.6 501
22:25:47 4 987 0 0 SW 0 96.6 503
22:28:47 4 987 0 0 SW 0 96.6 506
22:31:47 4 987 0 0 O 0 96.6 507
22:34:48 4 987 0 0 SW 0 96.6 515
22:37:46 4 987 0 0 W 0 96.6 527
22:40:47 4 987 0 0 SW 0 96.6 519
22:43:46 4 987 0 0 S 0 96.6 516
22:46:46 4 988 0 0 SW 0 96.6 518
22:49:48 4 987 0 0 0 96.6 519
22:52:46 4 987 0 0 W 0 96.6 523
22:55:47 4 987 0 0 NW 0 96.6 518
22:58:49 4 988 0 0 SW 0 96.6 504
23:01:45 4 987 0 0 W 0 96.6 495
23:04:47 4 988 0 0 S 0 96.6 498
23:07:47 4 988 0 0 SW 0 96.6 498
23:10:52 4 988 0 0 NW 0 96.6 504
23:13:47 4 988 0 0 SW 0 96.6 503
23:16:46 4 988 0 0 SW 0 96.6 509
23:19:46 4 988 0 0 SW 0 96.6 507
23:22:48 4 988 0 0 SW 0 96.6 512
23:25:46 4 988 0 0 W 0 96.6 504
23:28:50 4 988 0 0 SW 0 96.6 492
23:31:48 4 988 0 0 SW 0 96.6 486
23:34:47 5 988 0 0 W 0 96.6 486
23:37:50 5 989 0 0 SW 0 96.6 486
23:40:46 5 988 0 0 SW 0 96.6 498
23:43:47 5 988 0 0 SW 0 96.6 495
23:46:47 5 988 0 0 W 0 96.6 494
23:49:46 5 989 0 0 W 0 96.6 495
23:52:48 5 988 0 0 W 0 96.6 486
23:55:46 5 989 0 0 S 0 96.6 483
23:58:46 4 989 0 0 S 0 96.6 483

Letzte Änderung : 22-Jul-2022
Copyright Jens Köhler, Wolfsburg, Obere Dorfstraße 10d